Flag for U.S.A. Weather past 2 weeks in Fort Wayne, Indiana, U.S.A.

Now
84 °F

Light rain. Mostly cloudy.


Feels Like: 92 °F
Forecast: 69 / 84 °F
Wind: 10 mph from West

Location: Fort Wayne International Airport

Current Time: Jul 29, 2015 at 2:09:12 PM

Latest Report: Jul 29, 2015 at 12:54 PM


Visibility: 9 mi

Pressure: 29.94 "Hg

Humidity: 74%

Dew point: 75 °F

Location of Fort WayneLocation

Historic Weather in Fort Wayne — Graph

°F

Fort Wayne temperature yesterday

Maximum temperature yesterday: 88 °F (at 2:54 PM)
Minimum temperature yesterday: 66 °F (at 6:54 AM)
Average temperature yesterday: 78 °F

Past Weeks' High & Low Weather Summary

 TemperatureHumidityPressure
High88 °F (Jul 18, 1:54 PM)100% (Jul 26, 6:54 AM)30.09 "Hg (Jul 26, 6:54 AM)
Low57 °F (Jul 16, 3:54 AM)43% (Jul 27, 4:54 PM)29.56 "Hg (Jul 14, 12:54 PM)
Average74 °F74%29.93 "Hg
* Reported Jul 14 12:54 PM — Jul 29 12:54 PM, Fort Wayne, Weather by CustomWeather, © 2015

Note: Actual official high and low records may vary slightly from our data, if they occured in-between our weather recording intervals... More about our weather records

Advertising

Fort Wayne weather history for previous 24 hours

 ConditionsComfort  
Time TempWeatherWind HumidityBarometerVisibility
12:54 PM
Wed, Jul 29
84 °FLight rain. Mostly cloudy.10 mph74%29.94 "Hg9 mi
11:54 AM86 °FBroken clouds.6 mph75%29.94 "Hg9 mi
10:54 AM84 °FBroken clouds.6 mph77%29.93 "Hg9 mi
9:54 AM83 °FPartly sunny.7 mph77%29.96 "Hg8 mi
8:54 AM78 °FPartly sunny.3 mph84%29.96 "Hg6 mi
7:54 AM75 °FFog.No wind90%29.95 "Hg5 mi
6:54 AM73 °FFog.3 mph94%29.95 "Hg4 mi
5:54 AM72 °FPassing clouds.3 mph93%29.95 "Hg8 mi
4:54 AM72 °FPartly cloudy.No wind91%29.94 "Hg10 mi
3:54 AM73 °FPassing clouds.No wind88%29.93 "Hg10 mi
2:54 AM73 °FPassing clouds.6 mph90%29.94 "Hg10 mi
1:54 AM75 °FPassing clouds.No wind88%29.97 "Hg10 mi
12:54 AM75 °FPassing clouds.No wind88%29.97 "Hg10 mi
11:54 PM
Tue, Jul 28
78 °FPassing clouds.5 mph82%29.98 "Hg10 mi
10:54 PM78 °FPassing clouds.No wind82%29.98 "Hg10 mi
9:54 PM79 °FScattered clouds.No wind82%29.96 "Hg10 mi
8:54 PM80 °FScattered clouds.3 mph79%29.93 "Hg10 mi
7:54 PM86 °FPartly sunny.5 mph55%29.92 "Hg10 mi
6:54 PM87 °FPartly sunny.7 mph55%29.92 "Hg10 mi
5:54 PM88 °FPartly sunny.7 mph54%29.95 "Hg10 mi
4:54 PM88 °FPartly sunny.No wind54%29.96 "Hg10 mi
3:54 PM88 °FBroken clouds.7 mph54%29.97 "Hg10 mi
2:54 PM88 °FScattered clouds.5 mph54%29.98 "Hg10 mi
Weather by CustomWeather, © 2015

See weather overviewHow to use our weather pages